Location: Ottobeuren
(47.9410°N, 10.3007°E)
Time: 01:18:33
(UTC+01:00)

BlueWalker 3 - Pass Details

Date: 10 December 2025
Orbit: 451 x 463 km, 53.2° (Epoch: 15 January)

Event Time Altitude Azimuth Distance (km) Brightness Sun altitude
Rises 17:58:14 0° 290° (WNW) 2,491 6.4 -14.7°
Reaches altitude 10° 18:00:49 10° 272° (W) 1,612 5.7 -15.1°
Maximum altitude 18:03:25 19° 226° (SW) 1,171 4.6 -15.5°
Drops below altitude 10° 18:06:00 10° 180° (S) 1,606 4.7 -15.9°
Sets 18:08:35 0° 161° (SSE) 2,476 5.4 -16.3°
